Home   Weather   Timmins   Past weeks

Flag for Canada Past Weather in Timmins, Ontario, Canada — Yesterday and Last 2 Weeks

Now
73 °F

Mostly cloudy.


Feels Like: 77 °F
Forecast: 43 / 72 °F
Wind: 9 mph from West

Location: Timmins

Current Time: Aug 16, 2017 at 3:59:20 pm

Latest Report: Aug 16, 2017 at 3:00 pm


Visibility: 15 mi

Pressure: 30.06 "Hg

Humidity: 44%

Dew Point: 50 °F

Location of TimminsLocation

Past Weather in Timmins — Graph

°F

Timmins Temperature Yesterday

Maximum temperature yesterday: 66 °F (at 5:00 pm)
Minimum temperature yesterday: 45 °F (at 11:00 pm)
Average temperature yesterday: 57 °F

High & Low Weather Summary for the Past Weeks

 TemperatureHumidityPressure
High84 °F (Aug 1, 2:00 pm)100% (Aug 2, 3:00 am)30.21 "Hg (Aug 2, 3:00 am)
Low32 °F (Aug 7, 5:00 am)31% (Aug 12, 4:00 pm)29.62 "Hg (Aug 5, 4:00 am)
Average57 °F84%29.97 "Hg
* Reported Aug 1 2:00 pm — Aug 16 2:00 pm, Timmins. Weather by CustomWeather, © 2017

Note: Actual official high and low records may vary slightly from our data, if they occured in-between our weather recording intervals... More about our weather records

Advertising

Timmins Weather History for the Previous 24 Hours

Scroll right to see more
 ConditionsComfort  
Time TempWeatherWind HumidityBarometerVisibility
2:00 pm
Wed, Aug 16
72 °FScattered clouds.10 mph50%30.06 "Hg15 mi
1:00 pm72 °FMore clouds than sun.8 mph50%30.07 "Hg15 mi
12:00 pm70 °FBroken clouds.12 mph50%30.09 "Hg15 mi
11:00 am66 °FOvercast.9 mph56%30.10 "Hg15 mi
10:00 am63 °FPartly sunny.8 mph68%30.11 "Hg15 mi
9:00 am54 °FPartly sunny.5 mph88%30.11 "Hg15 mi
8:00 am46 °FScattered clouds.5 mph100%30.11 "Hg15 mi
7:00 am41 °FScattered clouds.6 mph100%30.11 "Hg15 mi
6:00 am41 °FFog.2 mph100%30.09 "Hg15 mi
5:00 am37 °FFog.2 mph100%30.07 "Hg5 mi
4:00 am39 °FFog.6 mph100%30.06 "Hg5 mi
3:00 am41 °FClear.No wind93%30.05 "Hg15 mi
2:00 am41 °FClear.No wind100%30.05 "Hg15 mi
1:00 am45 °FClear.2 mph100%30.06 "Hg15 mi
12:00 am45 °FClear.2 mph100%30.05 "Hg15 mi
11:00 pm
Tue, Aug 15
45 °FClear.3 mph100%30.05 "Hg15 mi
10:00 pm48 °FClear.3 mph94%30.02 "Hg15 mi
9:00 pm52 °FPassing clouds.5 mph88%30.01 "Hg15 mi
8:00 pm59 °FBroken clouds.7 mph68%30.00 "Hg15 mi
7:00 pm61 °FScattered clouds.9 mph59%29.99 "Hg15 mi
6:00 pm63 °FPartly sunny.13 mph59%29.97 "Hg15 mi
5:00 pm66 °FPartly sunny.9 mph52%29.95 "Hg15 mi
4:00 pm64 °FBroken clouds.9 mph56%29.96 "Hg15 mi
3:00 pm64 °FBroken clouds.6 mph56%29.96 "Hg15 mi
Weather by CustomWeather, © 2017

See weather overviewHow to use our weather pages